Regional Weather Roundup
Issued by NWS State College, PA

Current Version | Previous Version | Text Only | Print | Product List | Glossary On
Versions: 1 2 3 4 5 6 7 8 9 10 11 12 13 14 15 16 17 18 19 20 21 22 23 24 25 26 27 28 29 30 31 32 33 34 35 36 37 38 39 40 41 42 43 44 45 46 47 48 49 50
000
ASUS41 KCTP 281203
RWRCTP

REGIONAL WEATHER ROUNDUP
NATIONAL WEATHER SERVICE STATE COLLEGE PA
700 AM EST TUE JAN 28 2020

Note: "fair" indicates few or no clouds below 12,000 feet with no
significant weather and/or obstructions to visibility.

* = STATION THAT DOES NOT REPORT PRECIPITATION /E.G. RAIN...SNOW...ETC/
    THUNDER OR FOG.

PAZ002>004-007>009-013>016-020>023-029>032-281300-
WESTERN PENNSYLVANIA

CITY           SKY/WX    TMP DP  RH WIND       PRES   REMARKS
ERIE           CLOUDY    34  29  82 W7        29.95R
MEADVILLE      CLOUDY    30  27  88 W6        29.93R
FRANKLIN       FLURRIES  29  28  96 NW7       29.92R
NEW CASTLE     MIX PCPN  32  31  96 W6        29.97R FOG
BEAVER COUNTY  CLOUDY    33  31  93 W7        29.96R
BUTLER         LGT SNOW  31  30  96 W6        29.95R FOG
PITTSBURGH INT CLOUDY    32  29  88 W10       29.95R
PITTSBURGH     CLOUDY    32  29  88 VRB7      29.95R
INDIANA*       CLOUDY    32  32 100 W10       29.95R
LATROBE        CLOUDY    32  30  93 W9        29.95R
WASHINGTON CO* CLOUDY    33  31  92 W9        30.00R
$$

PAZ004>006-010>012-017>019-024>028-033>037-041-042-045-046-049>053-281300-
CENTRAL PENNSYLVANIA

CITY           SKY/WX    TMP DP  RH WIND       PRES   REMARKS
BRADFORD       LGT SNOW  29  25  85 NW10      29.83R FOG
ST MARYS       FLURRIES  30  28  93 W8G16     29.88
DUBOIS         CLOUDY    30  25  81 W13       29.87R
CLEARFIELD     CLOUDY    32  26  78 W5        29.88R
JOHNSTOWN      CLOUDY    28  26  92 W16G25    29.85R FOG
SOMERSET       CLOUDY    28  28 100 W12G20    29.88R FOG
ALTOONA        CLOUDY    33  26  75 NW12      29.88R
STATE COLLEGE  CLOUDY    34  27  75 NW7       29.87R
REEDSVILLE     CLOUDY    36  30  80 VRB3G12   29.87
WELLSBORO      CLOUDY    28  23  80 N10       29.81R
WILLIAMSPORT   CLOUDY    35  23  61 NW9       29.86R
SELINSGROVE    CLOUDY    36  26  67 VRB6      29.88R
FT INDIANTOWN  CLOUDY    37  24  59 W15G29    29.86R
CAPITAL CITY   CLOUDY    40  26  57 NW10      29.87R
HARRISBURG     CLOUDY    39  27  62 NW15G23   29.87R
YORK           CLOUDY    37  27  67 NW7       29.87R
$$

PAZ038>040-043-044-047-048-054-055-060>062-067>071-281300-
EASTERN PENNSYLVANIA

CITY           SKY/WX    TMP DP  RH WIND       PRES   REMARKS
TOWANDA        PTSUNNY   34  27  75 W8        29.86R
SCRANTON       CLOUDY    34  26  72 NW9       29.81R
MOUNT POCONO   LGT SNOW  28  25  88 NW12      29.74R FOG
HAZLETON       CLOUDY    32  27  80 NW8       29.81R
LEHIGHTON      NOT AVBL
ALLENTOWN      CLOUDY    37  28  70 W7        29.83R
QN CITY/ALNTWN CLOUDY    36  32  87 W3        29.85R
QUAKERTOWN*    CLOUDY    36  30  80 VRB5      29.83R
PERKASIE*      CLOUDY    36  30  80 W7        29.83R
DOYLESTOWN     CLOUDY    36  28  73 W6        29.82R
READING        MOCLDY    37  28  70 NW12      29.84R
LANCASTER      CLOUDY    38  27  64 NW8       29.86R
COATESVILLE    CLOUDY    36  28  75 NW9       29.85R
WEST CHESTER   CLOUDY    36  30  80 W6        29.84R
POTTSTOWN      CLOUDY    33  31  92 W5        29.86R
BLUE BELL      CLOUDY    36  30  79 W6        29.84R
NORTH PHILA    MOCLDY    38  28  67 NW6       29.85R
PHILADELPHIA   MOCLDY    39  28  64 NW9       29.86R
$$



USA.gov is the U.S. government's official web portal to all federal, state and local government web resources and services.